When you browse on this site, cookies collect data to enhance your experience and personalize the content and advertising you see.
Visit our Privacy Policy to learn more. By continuing to use the site, you agree to this use of cookies and data.

Météo par heure à Khartsyzk

Ce jour, 26 Septembre, Samedi

Heure Température Précipitation Vent Pression Humidité
00:00 +18°C° 0 mm 4 m/s 741 mmHg 41%
01:00 +18°C° 0 mm 4 m/s 741 mmHg 42%
02:00 +17°C° 0 mm 4 m/s 741 mmHg 43%
03:00 +17°C° 0 mm 4 m/s 741 mmHg 44%
04:00 +17°C° 0 mm 4 m/s 741 mmHg 44%
05:00 +17°C° 0 mm 4 m/s 741 mmHg 44%
06:00 +16°C° 0 mm 5 m/s 741 mmHg 44%
07:00 +17°C° 0 mm 5 m/s 741 mmHg 40%
08:00 +19°C° 0 mm 6 m/s 741 mmHg 37%
09:00 +21°C° 0 mm 7 m/s 741 mmHg 33%
10:00 +23°C° 0 mm 7 m/s 741 mmHg 28%
11:00 +26°C° 0 mm 8 m/s 741 mmHg 23%
12:00 +28°C° 0 mm 8 m/s 741 mmHg 17%
13:00 +28°C° 0 mm 8 m/s 741 mmHg 17%
14:00 +29°C° 0 mm 8 m/s 741 mmHg 16%
15:00 +31°C° 0 mm 8 m/s 741 mmHg 16%
16:00 +28°C° 0 mm 7 m/s 741 mmHg 18%
17:00 +27°C° 0 mm 6 m/s 741 mmHg 21%
18:00 +26°C° 0 mm 5 m/s 741 mmHg 24%
19:00 +24°C° 0 mm 6 m/s 741 mmHg 27%
20:00 +23°C° 0 mm 7 m/s 741 mmHg 29%
21:00 +22°C° 0 mm 7 m/s 741 mmHg 32%
22:00 +21°C° 0 mm 8 m/s 741 mmHg 34%
23:00 +21°C° 0 mm 8 m/s 741 mmHg 36%

Demain, 27 Septembre, Dimanche

Heure Température Précipitation Vent Pression Humidité
00:00 +20°C° 0 mm 8 m/s 742 mmHg 38%
01:00 +18°C° 0 mm 8 m/s 742 mmHg 40%
02:00 +17°C° 0 mm 8 m/s 742 mmHg 43%
03:00 +17°C° 0 mm 7 m/s 742 mmHg 45%
04:00 +16°C° 0 mm 7 m/s 742 mmHg 47%
05:00 +15°C° 0 mm 7 m/s 742 mmHg 49%
06:00 +15°C° 0 mm 8 m/s 743 mmHg 51%
07:00 +15°C° 0 mm 8 m/s 743 mmHg 50%
08:00 +16°C° 0 mm 8 m/s 743 mmHg 50%
09:00 +17°C° 0 mm 9 m/s 743 mmHg 49%
10:00 +19°C° 0 mm 9 m/s 744 mmHg 44%
11:00 +22°C° 0 mm 9 m/s 744 mmHg 40%
12:00 +24°C° 0 mm 9 m/s 744 mmHg 35%
13:00 +26°C° 0 mm 9 m/s 744 mmHg 34%
14:00 +27°C° 0 mm 8 m/s 744 mmHg 34%
15:00 +27°C° 0 mm 8 m/s 743 mmHg 33%
16:00 +27°C° 0 mm 7 m/s 744 mmHg 34%
17:00 +26°C° 0 mm 6 m/s 744 mmHg 35%
18:00 +26°C° 0 mm 5 m/s 744 mmHg 36%
19:00 +24°C° 0.1 mm 6 m/s 744 mmHg 38%
20:00 +23°C° 0.1 mm 7 m/s 744 mmHg 40%
21:00 +22°C° 0.1 mm 8 m/s 744 mmHg 42%
22:00 +21°C° 0.2 mm 7 m/s 745 mmHg 45%
23:00 +20°C° 0.2 mm 7 m/s 745 mmHg 48%

Après-demain, 28 Septembre, Lundi

Heure Température Précipitation Vent Pression Humidité
00:00 +19°C° 0.2 mm 6 m/s 745 mmHg 52%
01:00 +19°C° 0.6 mm 6 m/s 745 mmHg 54%
02:00 +17°C° 0.6 mm 6 m/s 745 mmHg 57%
03:00 +16°C° 0.6 mm 6 m/s 745 mmHg 60%
04:00 +16°C° 0.3 mm 6 m/s 746 mmHg 61%
05:00 +15°C° 0.3 mm 6 m/s 746 mmHg 63%
06:00 +15°C° 0.3 mm 6 m/s 747 mmHg 64%
07:00 +15°C° 0 mm 6 m/s 747 mmHg 61%
08:00 +16°C° 0 mm 6 m/s 747 mmHg 58%
09:00 +16°C° 0 mm 6 m/s 747 mmHg 55%
10:00 +19°C° 0 mm 6 m/s 747 mmHg 50%
11:00 +21°C° 0 mm 6 m/s 747 mmHg 45%
12:00 +23°C° 0 mm 6 m/s 747 mmHg 40%
13:00 +24°C° 0 mm 6 m/s 747 mmHg 37%
14:00 +26°C° 0 mm 5 m/s 747 mmHg 34%
15:00 +27°C° 0 mm 5 m/s 747 mmHg 31%
16:00 +26°C° 0 mm 5 m/s 747 mmHg 32%
17:00 +25°C° 0 mm 4 m/s 747 mmHg 34%
18:00 +23°C° 0 mm 4 m/s 747 mmHg 35%
19:00 +23°C° 0 mm 5 m/s 747 mmHg 36%
20:00 +22°C° 0 mm 6 m/s 747 mmHg 37%
21:00 +21°C° 0 mm 7 m/s 747 mmHg 38%
22:00 +20°C° 0 mm 7 m/s 747 mmHg 40%
23:00 +20°C° 0 mm 7 m/s 747 mmHg 42%

29 Septembre, Mardi

Heure Température Précipitation Vent Pression Humidité
00:00 +18°C° 0 mm 7 m/s 747 mmHg 45%
01:00 +17°C° 0 mm 7 m/s 747 mmHg 47%
02:00 +16°C° 0 mm 7 m/s 747 mmHg 50%
03:00 +15°C° 0 mm 7 m/s 746 mmHg 53%
04:00 +15°C° 0.1 mm 7 m/s 746 mmHg 56%
05:00 +15°C° 0.1 mm 7 m/s 746 mmHg 59%
06:00 +14°C° 0.1 mm 7 m/s 746 mmHg 61%
07:00 +14°C° 0 mm 7 m/s 746 mmHg 62%
08:00 +13°C° 0 mm 8 m/s 746 mmHg 62%
09:00 +13°C° 0 mm 8 m/s 746 mmHg 62%
10:00 +16°C° 0 mm 8 m/s 745 mmHg 55%
11:00 +18°C° 0 mm 8 m/s 745 mmHg 48%
12:00 +20°C° 0 mm 8 m/s 745 mmHg 40%
13:00 +21°C° 0 mm 8 m/s 745 mmHg 37%
14:00 +22°C° 0 mm 8 m/s 744 mmHg 34%
15:00 +23°C° 0 mm 9 m/s 744 mmHg 31%
16:00 +23°C° 0 mm 8 m/s 744 mmHg 31%
17:00 +23°C° 0 mm 8 m/s 743 mmHg 31%
18:00 +22°C° 0 mm 7 m/s 743 mmHg 31%
19:00 +22°C° 0 mm 8 m/s 743 mmHg 31%
20:00 +21°C° 0 mm 8 m/s 742 mmHg 32%
21:00 +21°C° 0 mm 9 m/s 742 mmHg 32%
22:00 +19°C° 0 mm 9 m/s 742 mmHg 34%
23:00 +19°C° 0 mm 9 m/s 742 mmHg 36%

30 Septembre, Mercredi

Heure Température Précipitation Vent Pression Humidité
00:00 +18°C° 0 mm 9 m/s 741 mmHg 38%
01:00 +17°C° 0 mm 9 m/s 741 mmHg 42%
02:00 +16°C° 0 mm 8 m/s 741 mmHg 45%
03:00 +16°C° 0 mm 8 m/s 741 mmHg 49%
04:00 +15°C° 0 mm 8 m/s 741 mmHg 51%
05:00 +13°C° 0 mm 8 m/s 741 mmHg 52%
06:00 +13°C° 0 mm 8 m/s 741 mmHg 54%
07:00 +13°C° 0 mm 9 m/s 740 mmHg 53%
08:00 +15°C° 0 mm 9 m/s 740 mmHg 51%
09:00 +16°C° 0 mm 9 m/s 740 mmHg 49%
10:00 +17°C° 0.1 mm 10 m/s 740 mmHg 47%
11:00 +18°C° 0.1 mm 10 m/s 740 mmHg 44%
12:00 +19°C° 0.1 mm 10 m/s 740 mmHg 42%
13:00 +21°C° 0 mm 10 m/s 739 mmHg 39%
14:00 +21°C° 0 mm 10 m/s 739 mmHg 36%
15:00 +22°C° 0 mm 11 m/s 739 mmHg 33%
16:00 +21°C° 0.1 mm 10 m/s 739 mmHg 36%
17:00 +21°C° 0.1 mm 9 m/s 739 mmHg 39%
18:00 +19°C° 0.1 mm 9 m/s 739 mmHg 42%
19:00 +18°C° 0.2 mm 9 m/s 739 mmHg 43%
20:00 +18°C° 0.2 mm 10 m/s 739 mmHg 45%
21:00 +18°C° 0.2 mm 10 m/s 739 mmHg 46%
22:00 +17°C° 0 mm 10 m/s 739 mmHg 45%
23:00 +17°C° 0 mm 10 m/s 739 mmHg 44%

1 Octobre, Jeudi

Heure Température Précipitation Vent Pression Humidité
00:00 +17°C° 0 mm 10 m/s 739 mmHg 43%
01:00 +16°C° 0 mm 10 m/s 739 mmHg 47%
02:00 +16°C° 0 mm 9 m/s 739 mmHg 50%
03:00 +15°C° 0 mm 9 m/s 739 mmHg 53%
04:00 +15°C° 0.1 mm 8 m/s 740 mmHg 58%
05:00 +13°C° 0.1 mm 8 m/s 740 mmHg 64%
06:00 +13°C° 0.1 mm 8 m/s 740 mmHg 69%
07:00 +13°C° 0.1 mm 8 m/s 741 mmHg 67%
08:00 +13°C° 0.1 mm 8 m/s 741 mmHg 66%
09:00 +13°C° 0.1 mm 8 m/s 741 mmHg 64%
10:00 +15°C° 0.6 mm 7 m/s 742 mmHg 63%
11:00 +15°C° 0.6 mm 7 m/s 742 mmHg 62%
12:00 +15°C° 0.6 mm 7 m/s 742 mmHg 61%
13:00 +15°C° 0.3 mm 6 m/s 742 mmHg 63%
14:00 +15°C° 0.3 mm 6 m/s 742 mmHg 65%
15:00 +15°C° 0.3 mm 6 m/s 742 mmHg 67%
16:00 +15°C° 0.2 mm 5 m/s 742 mmHg 65%
17:00 +17°C° 0.2 mm 4 m/s 742 mmHg 62%
18:00 +17°C° 0.2 mm 3 m/s 742 mmHg 59%
19:00 +17°C° 0.5 mm 4 m/s 742 mmHg 55%
20:00 +17°C° 0.5 mm 4 m/s 742 mmHg 50%
21:00 +17°C° 0.5 mm 5 m/s 742 mmHg 46%
22:00 +17°C° 0 mm 6 m/s 742 mmHg 46%
23:00 +16°C° 0 mm 6 m/s 742 mmHg 46%
Voir plus